QPF
0.00 0.00 0.00 0.00 0.00 0.00 0.00 0.00 0.00 0.00 0.00 0.00 0.00 0.00 0.00 0.00 0.00 0.00 0.00 0.00 0.00 0.00 0.00 0.00 0.00 0.00 0.00 0.00 0.00 0.00 0.00 0.00 0.00 0.00 0.00 0.00 0.00 0.00 0.00 0.00 0.00 0.00 0.00 0.00 0.00
0.00 0.00 0.00 0.00 0.00 0.00 0.00 0.00 0.00 0.00 0.00 0.00 0.00 0.00 0.00 0.00 0.00 0.00 0.00 0.00 0.00 0.00 0.00 0.00 0.00 0.00 0.00 0.00 0.00 0.00 0.00 0.00 0.00 0.00 0.00 0.00 0.00 0.00 0.00 0.00 0.00 0.00 0.00 0.00 0.00
0.00 0.00 0.00 0.00 0.00 0.00 0.00 0.00 0.00 0.00 0.00 0.00 0.00 0.00 0.00 0.00 0.00 0.00 0.00 0.00 0.00 0.00 0.00 0.00 0.00 0.00 0.00 0.00 0.00 0.00 0.00 0.00 0.00 0.00 0.00 0.00 0.00 0.00 0.00 0.00 0.00 0.00 0.00 0.00 0.00
0.00 0.00 0.00 0.00 0.00 0.00 0.00 0.00 0.00 0.00 0.00 0.00 0.00 0.00 0.00 0.00 0.00 0.00 0.00 0.00 0.00 0.00 0.00 0.00 0.00 0.00 0.00 0.00 0.00 0.00 0.00 0.00 0.00 0.00 0.00 0.00 0.00 0.00 0.00 0.00 0.00 0.00 0.00 0.00 0.00
0.00 0.00 0.00 0.00 0.00 0.00 0.00 0.00 0.00 0.00 0.00 0.00 0.00 0.00 0.00 0.00 0.00 0.00 0.00 0.00 0.00 0.00 0.00 0.00 0.00 0.00 0.00 0.00 0.00 0.00 0.00 0.00 0.00 0.00 0.00 0.00 0.00 0.00 0.00 0.00 0.00 0.00 0.00 0.00 0.00
0.00 0.00 0.00 0.00 0.00 0.00 0.00 0.00 0.00 0.00 0.00 0.00 0.00 0.00 0.00 0.00 0.00 0.00 0.00 0.00 0.00 0.00 0.00 0.00 0.00 0.00 0.00 0.00 0.00 0.00 0.00 0.00 0.00 0.00 0.00 0.00 0.00 0.00 0.00 0.00 0.00 0.00 0.00 0.00 0.00
0.00 0.00 0.00 0.00 0.00 0.00 0.00 0.00 0.00 0.00 0.00 0.00 0.00 0.00 0.00 0.00 0.00 0.00 0.00 0.00 0.00 0.00 0.00 0.00 0.00 0.00 0.00 0.00 0.00 0.00 0.00 0.00 0.00 0.00 0.00 0.00 0.00 0.00 0.00 0.00 0.00 0.00 0.00 0.00 0.00
0.00 0.00 0.00 0.00 0.00 0.00 0.00 0.00 0.00 0.00 0.00 0.00 0.00 0.00 0.00 0.00 0.00 0.00 0.00 0.00 0.00 0.00 0.00 0.00 0.00 0.00 0.00 0.00 0.00 0.00 0.00 0.00 0.00 0.00 0.00 0.00 0.00 0.00 0.00 0.00 0.00 0.00 0.00 0.00 0.00
0.00 0.00 0.00 0.00 0.00 0.00 0.00 0.00 0.00 0.00 0.00 0.00 0.00 0.00 0.00 0.00 0.00 0.00 0.00 0.00 0.00 0.00 0.00 0.00 0.00 0.00 0.00 0.00 0.00 0.00 0.00 0.00 0.00 0.00 0.00 0.00 0.00 0.00 0.00 0.00 0.00 0.00 0.00 0.00 0.00
0.00 0.00 0.00 0.00 0.00 0.00 0.00 0.00 0.00 0.00 0.00 0.00 0.00 0.00 0.00 0.00 0.00 0.00 0.00 0.00 0.00 0.00 0.00 0.00 0.00 0.00 0.00 0.00 0.00 0.00 0.00 0.00 0.00 0.00 0.00 0.00 0.00 0.00 0.00 0.00 0.00 0.00 0.00 0.00 0.00
0.00 0.00 0.00 0.00 0.00 0.00 0.00 0.00 0.00 0.00 0.00 0.00 0.00 0.00 0.00 0.00 0.00 0.00 0.00 0.00 0.00 0.00 0.00 0.00 0.00 0.00 0.00 0.00 0.00 0.00 0.00 0.00 0.00 0.00 0.00 0.00 0.00 0.00 0.00 0.00 0.00 0.00 0.00 0.00 0.00
0.00 0.00 0.00 0.00 0.00 0.00 0.00 0.00 0.00 0.00 0.00 0.00 0.00 0.00 0.00 0.00 0.00 0.00 0.00 0.00 0.00 0.00 0.00 0.00 0.00 0.00 0.00 0.00 0.00 0.00 0.00 0.00 0.00 0.00 0.00 0.00 0.00 0.00 0.00 0.00 0.00 0.00 0.00 0.00 0.00
0.00 0.00 0.00 0.00 0.00 0.00 0.00 0.00 0.00 0.00 0.00 0.00 0.00 0.00 0.00 0.00 0.00 0.00 0.00 0.00 0.00 0.00 0.00 0.00 0.00 0.00 0.00 0.00 0.00 0.00 0.00 0.00 0.00 0.00 0.00 0.00 0.00 0.00 0.00 0.00 0.00 0.00 0.00 0.00 0.00
0.00 0.00 0.00 0.00 0.00 0.00 0.00 0.00 0.00 0.00 0.00 0.00 0.00 0.00 0.00 0.00 0.00 0.00 0.00 0.00 0.00 0.00 0.00 0.00 0.00 0.00 0.00 0.00 0.00 0.00 0.00 0.00 0.00 0.00 0.00 0.00 0.00 0.00 0.00 0.00 0.00 0.00 0.00 0.00 0.00
0.00 0.00 0.00 0.00 0.00 0.00 0.00 0.00 0.00 0.00 0.00 0.00 0.00 0.00 0.00 0.00 0.00 0.00 0.00 0.00 0.00 0.00 0.00 0.00 0.00 0.00 0.00 0.00 0.00 0.00 0.00 0.00 0.00 0.00 0.00 0.00 0.00 0.00 0.00 0.00 0.00 0.00 0.00 0.00 0.00
0.00 0.00 0.00 0.00 0.00 0.00 0.00 0.00 0.00 0.00 0.00 0.00 0.00 0.00 0.00 0.00 0.00 0.00 0.00 0.00 0.00 0.00 0.00 0.00 0.00 0.00 0.00 0.00 0.00 0.00 0.00 0.00 0.00 0.00 0.00 0.00 0.00 0.00 0.00 0.00 0.00 0.00 0.00 0.00 0.00
0.00 0.00 0.00 0.00 0.00 0.00 0.00 0.00 0.00 0.00 0.00 0.00 0.00 0.00 0.00 0.00 0.00 0.00 0.00 0.00 0.00 0.00 0.00 0.00 0.00 0.00 0.00 0.00 0.00 0.00 0.00 0.00 0.00 0.00 0.00 0.00 0.00 0.00 0.00 0.00 0.00 0.00 0.00 0.00 0.00
0.00 0.00 0.00 0.00 0.00 0.00 0.00 0.00 0.00 0.00 0.00 0.00 0.00 0.00 0.00 0.00 0.00 0.00 0.00 0.00 0.00 0.00 0.00 0.00 0.00 0.00 0.00 0.00 0.00 0.00 0.00 0.00 0.00 0.00 0.00 0.00 0.00 0.00 0.00 0.00 0.00 0.00 0.00 0.00 0.00
0.00 0.00 0.00 0.00 0.00 0.00 0.00 0.00 0.00 0.00 0.00 0.00 0.00 0.00 0.00 0.00 0.00 0.00 0.00 0.00 0.00 0.00 0.00 0.00 0.00 0.00 0.00 0.00 0.00 0.00 0.00 0.00 0.00 0.00 0.00 0.00 0.00 0.00 0.00 0.00 0.00 0.00 0.00 0.00 0.00
0.00 0.00 0.00 0.00 0.00 0.00 0.00 0.00 0.00 0.00 0.00 0.00 0.00 0.00 0.00 0.00 0.00 0.00 0.00 0.00 0.00 0.00 0.00 0.00 0.00 0.00 0.00 0.00 0.00 0.00 0.00 0.00 0.00 0.00 0.00 0.00 0.00 0.00 0.00 0.00 0.00 0.00 0.00 0.00 0.00
0.00 0.00 0.00 0.00 0.00 0.00 0.00 0.00 0.00 0.00 0.00 0.00 0.00 0.00 0.00 0.00 0.00 0.00 0.00 0.00 0.00 0.00 0.00 0.00 0.00 0.00 0.00 0.00 0.00 0.00 0.00 0.00 0.00 0.00 0.00 0.00 0.00 0.00 0.00 0.00 0.00 0.00 0.00 0.00 0.00
0.00 0.00 0.00 0.00 0.00 0.00 0.00 0.00 0.00 0.00 0.00 0.00 0.00 0.00 0.00 0.00 0.00 0.00 0.00 0.00 0.00 0.00 0.00 0.00 0.00 0.00 0.00 0.00 0.00 0.00 0.00 0.00 0.00 0.00 0.00 0.00 0.00 0.00 0.00 0.00 0.00 0.00 0.00 0.00 0.00
0.00 0.00 0.00 0.00 0.00 0.00 0.00 0.00 0.00 0.00 0.00 0.00 0.00 0.00 0.00 0.00 0.00 0.00 0.00 0.00 0.00 0.00 0.00 0.00 0.00 0.00 0.00 0.00 0.00 0.00 0.00 0.00 0.00 0.00 0.00 0.00 0.00 0.00 0.00 0.00 0.00 0.00 0.00 0.00 0.00
0.00 0.00 0.00 0.00 0.00 0.00 0.00 0.00 0.00 0.00 0.00 0.00 0.00 0.00 0.00 0.00 0.00 0.00 0.00 0.00 0.00 0.00 0.00 0.00 0.00 0.00 0.00 0.00 0.00 0.00 0.00 0.00 0.00 0.00 0.00 0.00 0.00 0.00 0.00 0.00 0.00 0.00 0.00 0.00 0.00
0.01 0.00 0.00 0.00 0.00 0.00 0.00 0.00 0.00 0.00 0.00 0.00 0.00 0.00 0.00 0.00 0.00 0.00 0.00 0.00 0.00 0.00 0.00 0.00 0.00 0.00 0.00 0.00 0.00 0.00 0.00 0.00 0.00 0.00 0.00 0.00 0.00 0.00 0.00 0.00 0.00 0.00 0.00 0.00 0.00
0.00 0.00 0.00 0.00 0.00 0.00 0.00 0.00 0.00 0.00 0.00 0.00 0.00 0.00 0.00 0.00 0.00 0.00 0.00 0.00 0.00 0.00 0.00 0.00 0.00 0.00 0.00 0.00 0.00 0.00 0.00 0.00 0.00 0.00 0.00 0.00 0.00 0.00 0.00 0.00 0.00 0.00 0.00 0.00 0.00
0.00 0.00 0.00 0.00 0.00 0.00 0.00 0.00 0.00 0.00 0.00 0.00 0.00 0.00 0.00 0.00 0.00 0.00 0.00 0.00 0.00 0.00 0.00 0.00 0.00 0.00 0.00 0.00 0.00 0.00 0.00 0.00 0.00 0.00 0.00 0.00 0.00 0.00 0.00 0.00 0.00 0.00 0.00 0.00 0.00
MSLP
1019.50 1019.31 1018.93 1018.83 1018.73 1018.69 1018.32 1018.16 1017.86 1017.72 1017.51 1017.25 1017.11 1017.03 1016.85 1016.58 1016.09 1015.97 1016.37 1016.56 1016.27 1015.87 1015.65 1015.34 1014.98 1014.65 1014.55 1014.64 1014.71 1014.93 1015.72 1015.53 1014.61 1014.46 1014.65 1014.75 1014.88 1015.00 1014.83 1015.18 1015.46 1015.78 1016.34 1017.93 1018.01
1019.54 1019.33 1019.02 1018.76 1018.80 1018.62 1018.22 1018.08 1017.80 1017.73 1017.47 1017.28 1017.09 1017.04 1016.85 1016.66 1016.39 1016.31 1016.55 1016.22 1016.10 1015.90 1015.64 1015.41 1015.10 1014.80 1015.01 1014.94 1015.07 1015.33 1015.75 1015.05 1014.69 1014.77 1015.14 1015.27 1015.45 1015.59 1015.67 1015.80 1016.06 1016.31 1017.30 1017.81 1017.80
1019.58 1019.23 1019.13 1018.85 1018.63 1018.44 1018.19 1017.84 1017.69 1017.55 1017.37 1017.11 1017.03 1017.01 1016.85 1016.74 1016.70 1016.55 1016.35 1016.13 1015.98 1015.76 1015.70 1015.50 1015.31 1015.03 1015.11 1015.15 1015.35 1015.40 1015.46 1015.13 1015.15 1015.12 1015.44 1015.61 1015.79 1015.98 1016.17 1016.20 1016.27 1016.82 1017.25 1017.44 1017.79
1019.71 1019.30 1019.05 1018.92 1018.66 1018.30 1017.94 1017.70 1017.51 1017.35 1017.23 1016.99 1016.92 1016.84 1016.72 1016.82 1017.09 1016.41 1016.25 1016.01 1015.88 1015.76 1015.60 1015.51 1015.44 1015.37 1015.21 1015.42 1015.46 1015.80 1015.32 1015.25 1015.24 1015.47 1015.71 1016.00 1016.20 1016.45 1016.53 1016.34 1016.44 1016.86 1017.22 1017.43 1017.69
1019.71 1019.43 1019.12 1018.91 1018.57 1018.27 1017.97 1017.56 1017.27 1017.07 1016.99 1016.96 1016.81 1016.75 1016.83 1016.85 1016.48 1016.27 1016.15 1015.95 1015.77 1015.65 1015.62 1015.72 1015.77 1015.67 1015.67 1015.61 1015.81 1016.01 1015.84 1015.55 1015.38 1015.57 1015.81 1016.05 1016.35 1016.75 1016.15 1016.28 1016.65 1016.89 1017.08 1017.29 1017.42
1019.60 1019.43 1019.07 1018.87 1018.49 1018.13 1017.80 1017.47 1017.06 1016.78 1016.64 1016.70 1016.68 1016.77 1016.93 1016.84 1016.07 1016.16 1016.02 1016.01 1015.90 1015.71 1015.90 1015.92 1016.26 1016.17 1016.16 1016.05 1016.26 1016.34 1016.18 1015.91 1015.62 1015.69 1015.89 1016.29 1016.46 1016.79 1016.11 1016.19 1016.65 1016.79 1016.91 1017.03 1017.18
1019.49 1019.32 1018.89 1018.68 1018.30 1017.89 1017.55 1017.17 1016.90 1016.57 1016.45 1016.56 1016.59 1016.69 1016.65 1016.47 1016.07 1016.11 1016.03 1016.09 1016.11 1016.08 1016.09 1016.24 1016.33 1016.48 1016.49 1016.51 1016.54 1016.44 1016.53 1016.01 1015.41 1015.83 1016.39 1016.60 1016.70 1016.35 1015.89 1016.25 1016.61 1016.84 1016.96 1017.15 1017.37
1019.44 1019.09 1018.84 1018.51 1018.09 1017.64 1017.34 1016.93 1016.67 1016.56 1016.46 1016.47 1016.55 1016.71 1016.47 1016.07 1016.09 1016.17 1016.05 1016.18 1016.19 1016.21 1016.27 1016.37 1016.35 1016.49 1016.69 1016.93 1016.84 1016.88 1016.99 1016.70 1015.63 1016.00 1016.76 1017.05 1016.31 1016.06 1016.03 1016.27 1016.67 1016.82 1017.08 1017.22 1017.32
1019.33 1019.00 1018.75 1018.39 1017.91 1017.43 1017.01 1016.84 1016.56 1016.57 1016.55 1016.48 1016.67 1016.59 1016.45 1016.13 1016.27 1016.32 1016.29 1016.22 1016.15 1016.39 1016.36 1016.35 1016.51 1016.75 1017.01 1017.36 1017.58 1017.34 1017.51 1017.09 1016.24 1016.18 1016.83 1017.31 1016.19 1015.75 1015.99 1016.19 1016.50 1016.71 1016.91 1017.18 1017.37
1019.13 1018.83 1018.62 1018.38 1017.79 1017.25 1016.72 1016.61 1016.51 1016.51 1016.53 1016.37 1016.35 1016.89 1016.56 1016.29 1016.37 1016.41 1016.50 1016.37 1016.36 1016.33 1016.52 1016.68 1016.91 1017.10 1017.45 1017.83 1017.75 1017.65 1017.78 1017.32 1017.03 1016.63 1016.89 1016.85 1015.76 1015.92 1015.84 1016.00 1016.14 1016.47 1016.78 1017.21 1017.67
1018.98 1018.67 1018.48 1018.19 1017.75 1017.02 1016.87 1016.84 1017.19 1017.23 1016.71 1016.23 1016.16 1016.17 1016.33 1016.47 1016.53 1016.63 1016.53 1016.59 1016.56 1016.60 1016.73 1016.75 1017.29 1017.09 1016.87 1017.06 1017.23 1017.61 1017.97 1018.09 1017.39 1017.09 1017.30 1016.78 1016.23 1015.55 1015.47 1015.54 1015.69 1016.17 1016.79 1017.38 1017.93
1019.19 1018.75 1018.53 1018.06 1017.67 1017.11 1017.01 1017.99 1018.75 1019.11 1017.75 1016.29 1016.32 1016.44 1016.39 1016.50 1016.55 1016.83 1016.86 1017.00 1016.93 1016.85 1016.68 1017.09 1016.84 1016.46 1016.56 1016.92 1017.31 1017.80 1018.28 1018.12 1017.73 1017.85 1018.11 1017.45 1016.27 1014.99 1014.90 1014.86 1015.17 1015.94 1017.00 1017.53 1017.92
1019.35 1018.85 1018.39 1018.03 1017.69 1017.60 1018.04 1018.86 1018.85 1018.94 1018.76 1017.09 1016.61 1016.69 1016.75 1016.80 1016.69 1017.02 1017.13 1016.92 1017.07 1016.99 1016.70 1016.79 1016.41 1016.26 1016.65 1017.10 1017.63 1017.99 1018.51 1018.64 1019.12 1019.17 1019.00 1018.43 1016.75 1015.89 1015.41 1015.35 1015.69 1016.13 1016.72 1017.51 1018.14
1019.35 1018.75 1018.07 1017.74 1018.09 1017.97 1018.50 1018.71 1018.64 1018.94 1018.67 1017.63 1016.95 1017.05 1016.87 1016.81 1017.14 1017.23 1017.18 1017.31 1017.22 1017.20 1016.88 1016.64 1016.31 1016.56 1016.95 1017.39 1017.94 1018.56 1018.69 1019.26 1019.87 1020.69 1021.15 1020.25 1019.37 1016.83 1016.15 1015.98 1015.97 1016.27 1016.95 1018.01 1018.85
1019.15 1018.61 1018.06 1017.57 1018.00 1018.35 1018.90 1018.53 1018.61 1019.09 1018.65 1017.30 1017.10 1016.99 1016.95 1017.40 1017.53 1017.57 1017.66 1017.49 1017.31 1017.32 1017.35 1016.72 1016.74 1017.02 1017.32 1017.39 1017.89 1018.55 1019.07 1019.89 1020.58 1021.72 1022.34 1021.51 1021.84 1017.15 1016.87 1016.57 1016.26 1016.65 1017.67 1018.78 1019.49
1018.92 1018.46 1018.20 1018.13 1018.19 1018.85 1018.78 1018.82 1019.05 1019.45 1018.03 1017.16 1016.95 1016.87 1016.89 1016.98 1017.43 1017.79 1017.85 1017.99 1017.81 1017.62 1017.23 1017.06 1017.10 1017.29 1017.55 1017.87 1018.29 1018.93 1019.74 1020.54 1021.41 1022.50 1023.13 1021.63 1021.69 1017.94 1017.41 1016.78 1016.69 1017.37 1018.48 1019.20 1019.27
1018.36 1018.56 1018.40 1018.60 1019.13 1018.95 1018.93 1019.32 1019.44 1019.02 1017.84 1017.62 1017.29 1017.22 1017.33 1017.38 1017.38 1017.87 1018.17 1018.39 1018.24 1018.07 1017.73 1017.45 1017.53 1017.76 1018.15 1018.63 1018.91 1019.71 1020.78 1021.80 1022.87 1023.37 1022.58 1021.57 1021.59 1017.68 1016.68 1016.84 1017.66 1018.59 1019.05 1019.08 1019.05
1018.34 1018.74 1019.16 1019.25 1019.25 1019.09 1019.08 1019.59 1019.87 1018.87 1018.55 1018.18 1017.82 1017.51 1017.95 1017.91 1018.15 1018.33 1018.59 1018.59 1018.55 1018.47 1018.45 1018.01 1018.22 1018.49 1018.81 1019.16 1019.45 1020.23 1021.03 1022.31 1023.36 1023.70 1023.16 1021.86 1020.35 1016.98 1016.69 1017.53 1018.32 1019.09 1019.28 1019.45 1019.47
1018.73 1019.02 1019.36 1019.57 1019.18 1019.47 1019.48 1019.91 1019.53 1019.52 1019.42 1019.27 1018.37 1018.46 1018.60 1018.81 1018.92 1018.91 1018.65 1018.50 1018.31 1018.66 1018.77 1018.63 1018.68 1019.04 1019.39 1019.67 1020.19 1020.67 1021.27 1022.12 1023.23 1024.16 1024.19 1021.25 1018.58 1016.63 1017.31 1018.14 1018.98 1019.41 1019.69 1019.75 1019.58
1018.91 1019.22 1019.52 1019.65 1019.48 1019.40 1019.96 1019.77 1019.85 1020.04 1020.07 1020.10 1019.89 1019.30 1019.39 1019.41 1019.51 1019.33 1018.81 1018.56 1018.63 1018.68 1018.52 1019.06 1019.29 1019.21 1019.89 1020.27 1020.65 1020.97 1021.62 1022.74 1023.88 1024.99 1024.28 1021.37 1019.79 1018.60 1018.47 1019.07 1019.60 1019.91 1020.11 1020.02 1019.70
1018.95 1019.38 1019.57 1019.55 1019.45 1019.81 1020.15 1020.12 1020.22 1020.57 1020.58 1020.86 1020.77 1020.23 1020.16 1019.98 1019.84 1019.60 1019.16 1019.35 1019.30 1019.08 1018.91 1019.15 1019.90 1020.06 1020.48 1020.99 1020.98 1021.99 1022.21 1023.03 1023.75 1024.61 1024.90 1023.69 1019.33 1017.82 1018.69 1019.63 1020.05 1020.22 1020.28 1020.10 1020.17
1018.92 1019.52 1019.67 1019.54 1020.05 1020.29 1020.23 1020.30 1020.47 1020.73 1021.11 1021.13 1021.39 1020.95 1020.78 1020.54 1020.19 1019.84 1019.51 1019.64 1019.67 1019.43 1019.32 1019.56 1019.81 1019.98 1020.30 1020.95 1021.44 1021.75 1022.36 1023.07 1024.17 1025.00 1024.89 1024.33 1020.35 1017.89 1018.65 1019.74 1020.13 1020.27 1020.47 1020.48 1020.62
1019.15 1019.50 1019.75 1019.73 1020.16 1020.41 1020.34 1020.56 1020.64 1020.79 1021.11 1021.34 1021.26 1021.17 1021.24 1021.05 1020.77 1020.12 1019.90 1019.96 1019.87 1019.93 1019.78 1019.73 1019.81 1020.29 1020.64 1021.75 1022.02 1022.48 1022.82 1023.29 1023.84 1024.61 1024.69 1024.23 1020.04 1018.19 1019.29 1020.00 1020.27 1020.70 1021.19 1021.05 1021.09
1019.31 1019.82 1020.31 1020.21 1020.14 1020.33 1020.20 1020.41 1020.54 1020.78 1021.00 1021.21 1021.27 1021.42 1021.50 1021.31 1021.07 1020.73 1020.35 1020.11 1020.05 1020.09 1020.00 1020.00 1020.15 1020.56 1020.92 1021.39 1022.21 1023.38 1023.29 1023.55 1023.89 1024.92 1024.05 1022.11 1019.77 1018.42 1019.38 1020.40 1020.99 1021.19 1021.63 1021.75 1022.08
1019.06 1019.45 1019.87 1020.04 1020.19 1020.17 1020.19 1020.09 1020.22 1020.53 1020.98 1021.15 1021.24 1021.35 1021.53 1021.63 1021.28 1021.09 1020.69 1020.46 1020.42 1020.23 1020.17 1020.37 1020.53 1020.89 1020.84 1021.43 1022.55 1022.64 1023.03 1023.44 1023.58 1023.15 1023.21 1021.25 1020.72 1019.09 1019.41 1020.57 1021.08 1021.75 1022.02 1022.31 1022.60
1018.87 1019.33 1019.71 1019.78 1019.97 1020.06 1019.89 1019.83 1019.90 1019.95 1020.44 1020.77 1021.01 1021.10 1021.37 1021.56 1021.28 1021.17 1021.07 1020.77 1020.51 1020.67 1020.63 1020.80 1020.83 1021.29 1021.13 1021.61 1022.37 1022.87 1022.43 1022.89 1023.22 1023.01 1022.21 1021.31 1020.31 1019.01 1019.31 1020.30 1021.23 1022.04 1022.50 1022.87 1022.85
1018.73 1018.79 1019.03 1019.55 1019.78 1019.83 1019.49 1019.65 1019.80 1019.93 1020.07 1020.24 1020.63 1021.11 1021.30 1021.36 1021.38 1021.35 1021.23 1021.13 1021.03 1020.93 1020.83 1021.07 1021.37 1021.94 1021.52 1021.53 1022.16 1022.11 1020.52 1021.71 1021.89 1021.30 1020.96 1020.92 1019.27 1019.25 1019.85 1020.77 1020.72 1021.41 1021.92 1022.30 1022.65
Thickness
5620 5621 5624 5624 5624 5623 5626 5626 5628 5628 5629 5630 5630 5629 5629 5630 5632 5633 5628 5626 5627 5628 5629 5631 5633 5635 5635 5633 5634 5631 5610 5611 5630 5632 5623 5621 5622 5620 5623 5615 5614 5611 5607 5584 5583
5616 5617 5620 5622 5619 5620 5623 5623 5625 5624 5625 5626 5626 5625 5625 5625 5627 5627 5623 5624 5623 5624 5625 5625 5627 5629 5622 5625 5622 5613 5599 5619 5623 5619 5613 5613 5610 5606 5607 5602 5599 5597 5581 5575 5572
5611 5614 5614 5617 5617 5618 5619 5622 5622 5622 5622 5624 5623 5621 5621 5620 5620 5619 5619 5620 5620 5620 5620 5620 5620 5622 5619 5619 5615 5612 5604 5614 5612 5607 5604 5602 5596 5597 5594 5588 5589 5580 5572 5563 5558
5605 5609 5611 5611 5613 5615 5617 5619 5619 5619 5619 5620 5620 5618 5617 5615 5617 5615 5614 5615 5615 5615 5615 5615 5614 5612 5613 5609 5609 5602 5608 5610 5608 5601 5597 5592 5589 5581 5579 5578 5574 5565 5560 5557 5552
5599 5602 5605 5606 5608 5609 5611 5614 5616 5617 5616 5616 5616 5614 5612 5612 5612 5610 5610 5610 5611 5610 5609 5606 5605 5604 5604 5605 5601 5595 5598 5600 5600 5595 5590 5586 5576 5571 5573 5569 5559 5556 5552 5548 5544
5594 5596 5599 5600 5602 5605 5606 5608 5611 5613 5614 5612 5611 5609 5607 5605 5608 5605 5605 5603 5603 5604 5599 5598 5594 5594 5593 5596 5591 5589 5586 5583 5589 5588 5585 5579 5570 5568 5569 5557 5548 5547 5544 5539 5536
5588 5590 5594 5595 5597 5600 5602 5605 5606 5608 5608 5606 5605 5603 5603 5602 5602 5599 5598 5597 5594 5594 5592 5590 5588 5587 5586 5586 5581 5583 5574 5578 5583 5580 5572 5562 5559 5552 5557 5549 5540 5535 5527 5521 5518
5581 5585 5587 5590 5592 5595 5596 5599 5600 5600 5600 5599 5597 5595 5591 5598 5595 5592 5591 5589 5587 5586 5584 5582 5582 5580 5578 5574 5574 5572 5570 5566 5582 5568 5558 5558 5552 5550 5542 5535 5524 5517 5506 5504 5501
5574 5577 5579 5582 5586 5589 5592 5592 5594 5592 5590 5590 5587 5587 5586 5588 5585 5583 5582 5581 5580 5576 5576 5576 5573 5570 5568 5558 5550 5560 5554 5562 5573 5559 5544 5541 5543 5546 5529 5520 5511 5502 5497 5491 5485
5566 5570 5571 5573 5578 5582 5585 5586 5586 5584 5583 5582 5582 5576 5576 5579 5575 5573 5571 5571 5570 5570 5566 5563 5557 5551 5542 5540 5523 5558 5551 5553 5553 5557 5544 5534 5539 5528 5520 5511 5502 5491 5484 5477 5467
5559 5561 5562 5565 5568 5574 5577 5576 5573 5575 5576 5581 5580 5579 5575 5569 5567 5564 5563 5560 5560 5559 5554 5555 5545 5542 5550 5545 5555 5548 5540 5524 5529 5543 5532 5521 5520 5527 5515 5507 5499 5483 5473 5460 5450
5548 5552 5552 5557 5560 5565 5566 5557 5550 5549 5555 5570 5570 5566 5566 5562 5561 5555 5553 5550 5549 5544 5548 5543 5537 5553 5553 5551 5547 5538 5528 5515 5526 5525 5515 5509 5516 5522 5512 5505 5499 5477 5456 5446 5435
5537 5542 5546 5548 5551 5552 5547 5540 5540 5540 5536 5559 5558 5556 5552 5552 5552 5543 5543 5546 5541 5539 5542 5536 5550 5547 5546 5542 5536 5526 5519 5518 5511 5496 5499 5490 5495 5487 5500 5487 5475 5465 5454 5438 5422
5529 5534 5541 5544 5541 5541 5533 5532 5532 5529 5522 5548 5544 5539 5541 5542 5537 5535 5533 5532 5532 5530 5528 5533 5538 5536 5532 5526 5519 5506 5514 5505 5496 5463 5461 5466 5450 5479 5484 5476 5469 5458 5443 5426 5401
5522 5527 5532 5536 5533 5529 5524 5525 5523 5516 5517 5545 5531 5530 5528 5524 5522 5521 5520 5520 5522 5524 5521 5534 5525 5521 5516 5522 5517 5502 5500 5489 5487 5441 5432 5449 5396 5460 5476 5470 5463 5449 5430 5407 5389
5516 5520 5523 5523 5523 5518 5517 5515 5512 5510 5521 5530 5521 5523 5519 5517 5514 5506 5509 5507 5508 5508 5513 5514 5516 5515 5513 5512 5507 5500 5487 5486 5461 5448 5426 5430 5426 5469 5454 5450 5466 5446 5418 5396 5385
5513 5512 5513 5512 5510 5510 5510 5506 5518 5528 5521 5510 5514 5516 5512 5510 5510 5504 5499 5492 5495 5511 5507 5509 5504 5500 5500 5497 5497 5473 5460 5427 5434 5446 5434 5444 5430 5477 5458 5448 5429 5412 5403 5386 5383
5506 5503 5501 5500 5501 5503 5504 5501 5503 5490 5511 5508 5506 5510 5501 5501 5495 5487 5481 5484 5476 5480 5484 5504 5510 5485 5484 5480 5481 5476 5453 5434 5428 5410 5425 5451 5418 5478 5443 5420 5405 5396 5383 5390 5381
5497 5495 5493 5491 5496 5493 5500 5478 5476 5499 5494 5486 5497 5484 5478 5484 5475 5475 5482 5490 5486 5473 5481 5479 5494 5473 5471 5470 5471 5473 5458 5452 5401 5368 5414 5421 5462 5487 5453 5427 5408 5392 5402 5387 5377
5488 5486 5485 5484 5486 5489 5483 5489 5489 5477 5476 5472 5486 5483 5484 5465 5464 5468 5483 5482 5475 5472 5474 5467 5462 5476 5463 5464 5465 5464 5455 5434 5398 5381 5375 5428 5436 5458 5432 5426 5410 5399 5389 5379 5377
5480 5479 5477 5477 5479 5480 5486 5479 5475 5466 5467 5467 5469 5471 5463 5466 5462 5465 5471 5461 5455 5461 5466 5461 5453 5465 5455 5436 5447 5435 5432 5434 5421 5402 5372 5392 5439 5438 5433 5408 5410 5399 5396 5374 5366
5473 5471 5467 5469 5467 5458 5474 5470 5464 5459 5451 5457 5446 5449 5450 5455 5455 5459 5468 5454 5448 5458 5456 5453 5450 5468 5465 5429 5440 5448 5417 5418 5405 5400 5363 5378 5431 5413 5415 5398 5394 5402 5398 5376 5369
5459 5459 5457 5459 5451 5463 5456 5455 5452 5453 5451 5449 5450 5449 5438 5443 5450 5453 5456 5443 5449 5444 5445 5447 5462 5461 5471 5446 5441 5422 5426 5417 5400 5386 5377 5382 5437 5410 5396 5404 5405 5394 5375 5375 5372
5449 5450 5442 5445 5445 5453 5458 5457 5457 5445 5447 5447 5447 5441 5434 5433 5436 5437 5443 5445 5442 5442 5446 5444 5447 5452 5473 5466 5422 5416 5407 5421 5421 5359 5373 5418 5438 5466 5422 5405 5395 5388 5377 5363 5356
5442 5441 5432 5446 5440 5446 5441 5448 5454 5452 5438 5441 5440 5434 5434 5428 5432 5426 5438 5438 5431 5437 5437 5434 5439 5424 5435 5435 5398 5408 5403 5420 5419 5398 5427 5415 5394 5456 5455 5418 5396 5378 5368 5366 5356
5432 5435 5426 5431 5436 5438 5440 5444 5453 5448 5444 5443 5438 5439 5435 5429 5437 5438 5434 5442 5441 5426 5428 5424 5435 5418 5426 5396 5383 5400 5408 5417 5430 5385 5414 5436 5448 5433 5400 5383 5389 5383 5371 5368 5359
5424 5426 5429 5428 5426 5429 5437 5436 5439 5438 5443 5443 5437 5434 5426 5428 5423 5423 5422 5420 5424 5423 5424 5422 5424 5417 5425 5411 5413 5440 5422 5414 5403 5391 5415 5414 5450 5407 5423 5403 5400 5394 5384 5377 5366